Location: Cosy Dell
(34.2789°N, 117.4537°W)
Time: 00:07:41
(UTC+00:00)

AQUA - Pass Details

Date: 14 July 2020
Orbit: 701 x 704 km, 98.2° (Epoch: 12 August)

Event Time Altitude Azimuth Distance (km) Brightness Sun altitude
Rises 09:44:19 0° 11° (N) 3,096 8.2 -28.5°
Reaches altitude 10° 09:46:34 10° 11° (N) 2,173 7.2 -28.2°
Enters shadow 09:50:39 65° 359° (N) 773 4.1 -27.8°
